Regional Weather Roundup
Issued by NWS

Home | Current Version | Previous Version | Text Only | Print | Product List | Glossary Off
Versions: 1 2 3 4 5 6 7 8 9 10 11 12 13 14 15 16 17 18 19 20 21 22 23 24 25 26 27 28 29 30 31 32 33 34 35 36 37 38 39 40 41 42 43 44 45 46 47 48 49 50

841
ASUS45 KBOU 112207
RWRCO

WEATHER ROUNDUP FOR COLORADO
NATIONAL WEATHER SERVICE DENVER/BOULDER CO
300 PM MST THU FEB 11 2016

NOTE: "FAIR" INDICATES FEW OR NO CLOUDS BELOW 12000 FEET WITH NO
SIGNIFICANT WEATHER AND/OR OBSTRUCTIONS TO VISIBILITY.

COZ001>005-013-030-031-112300-
...NORTHWEST COLORADO...

CITY           SKY/WX    TMP DP  RH WIND       PRES   REMARKS
CRAIG          CLOUDY    30  22  72 CALM      30.36F
HAYDEN         CLOUDY    28  16  59 CALM      30.36S
MEEKER         CLOUDY    40  22  48 CALM      30.35F
MOUNT WERNER   NOT AVBL
STEAMBOAT SPGS CLOUDY    31  18  57 CALM      30.36R
WALDEN         CLOUDY    39  19  45 S7        30.31S
$$

COZ006>008-011-112300-
...WEST CENTRAL VALLEYS...

CITY           SKY/WX    TMP DP  RH WIND       PRES   REMARKS
GRAND JUNCTION SUNNY     41  27  57 N6        30.36F
MONTROSE       SUNNY     48  22  35 CALM      30.37F
EAGLE          NOT AVBL
RIFLE          SUNNY     42  18  37 CALM      30.36F
DELTA          SUNNY     49  22  33 SW3       30.37S
NUCLA          SUNNY     46  21  36 CALM      30.39F
$$

COZ017>023-064>068-112300-
...SOUTHWEST COLORADO...

CITY           SKY/WX    TMP DP  RH WIND       PRES   REMARKS
DURANGO        CLOUDY    42  21  43 E6        30.33F
CORTEZ         CLOUDY    51  24  34 SE3       30.34F
PAGOSA SPRINGS CLOUDY    50  13  22 SW3       30.35F
TELLURIDE      CLOUDY    48   3  16 W13G18    30.42S
WOLF CREEK PAS CLOUDY    37   3  23 SW6       30.51S
$$

COZ009-010-012-014-032>034-037-058>063-112300-
...CENTRAL COLORADO...

CITY           SKY/WX    TMP DP  RH WIND       PRES   REMARKS
ASPEN          CLOUDY    43  21  41 N6        30.35S
BUENA VISTA    SUNNY     53  12  19 SE7       30.27S
COPPER MTN     CLOUDY    36   9  32 NW20G29   30.45R
BERTHOUD PASS  FAIR      28  18  64 MISG      30.37R
COTTONWOOD PAS SUNNY     50   1  13 W14G29    30.35S
GUNNISON       CLOUDY    14   7  73 SE3       30.46F
KREMMLING      CLOUDY    23  10  58 CALM      30.41R
LEADVILLE      CLOUDY    42  13  30 W17       30.36S
MONARCH PASS   SUNNY     32   5  32 W32G38    30.53R WCI  17
SALIDA         NOT AVBL
SUNLIGHT       SUNNY     41  10  28 CALM      30.48S
WILKERSON PASS CLOUDY    43  12  28 W3        30.41R
$$

COZ069>075-112300-
...SAN LUIS VALLEY/SANGRE DE CRISTO MOUNTAINS...

CITY           SKY/WX    TMP DP  RH WIND       PRES   REMARKS
ALAMOSA        SUNNY     50  12  21 SW5       30.32F
LA VETA PASS   CLOUDY    45  12  26 SW9G21    30.36R
SAGUACHE       SUNNY     46  18  31 S8        30.34S
$$

COZ035-036-038>040-112300-
...NORTHERN COLORADO FRONT RANGE...

CITY           SKY/WX    TMP DP  RH WIND       PRES   REMARKS
DENVER INTL AP CLOUDY    58  30  34 E10       30.12R
DMNS CITY PARK   N/A     64  17  16 W15G24    30.11S
AURORA         NOT AVBL
FRONT RANGE AP PTSUNNY   54  32  43 MISG      30.14R
ERIE MUNI ARPT CLOUDY    62  29  28 NE6       30.10R
BOULDER MUN AP CLOUDY    63  19  19 W23       30.09F
CENTENNIAL     CLOUDY    61  23  23 N18       30.13R
BROOMFIELD     NOT AVBL
FORT COLLINS   CLOUDY    50  28  43 SE7       30.11R
LONGMONT       CLOUDY    60  28  29 E6        30.11S
$$

COZ041-046-047-076>085-087-088-112300-
...PIKES PEAK/PALMER DIVIDE AND SOUTHERN FOOTHILLS...

CITY           SKY/WX    TMP DP  RH WIND       PRES   REMARKS
COLO. SPRINGS  CLOUDY    54  21  27 E8        30.15F
A. F. ACADEMY  NOT AVBL
SCHRIEVER AFB  FAIR      55  18  23 S3        30.16S
ELLICOTT       CLOUDY   N/A N/A N/A CALM      30.14F
FALCON         NOT AVBL
FORT CARSON    NOT AVBL
LIMON          CLOUDY    47  27  45 N5        30.15R
MONUMENT HILL  CLOUDY    52  14  22 NW6       30.20R
TRINIDAD       CLOUDY    71   5   7 NW12      30.14S
$$

COZ042>045-048>051-090-091-112300-
...NORTHEAST COLORADO...

CITY           SKY/WX    TMP DP  RH WIND       PRES   REMARKS
GREELEY ARPT   CLOUDY    50  32  50 S6        30.10S
AKRON          CLOUDY    54  30  40 N12       30.13R
BURLINGTON     CLOUDY    60  26  27 N15       30.10S
WRAY           NOT AVBL
STERLING       CLOUDY    55  30  38 N16G24    30.09S
HOLYOKE        CLOUDY    59  34  38 NW12      30.10R
FORT MORGAN    CLOUDY    55  25  31 N22G31    30.12R
$$

COZ086-089-092>099-112300-
...SOUTHEAST COLORADO...

CITY           SKY/WX    TMP DP  RH WIND       PRES   REMARKS
PUEBLO         CLOUDY    73  11   9 W14       30.08S
LA JUNTA       CLOUDY    68  21  16 N6        30.09F
LAMAR          CLOUDY    70  16  12 NW10      30.06S
SPRINGFIELD      N/A     68   9  10 W6        30.09S
$$




USA.gov is the U.S. government's official web portal to all federal, state and local government web resources and services.